CAPE
84 317 34 574 120 5 26 99 294 478 620 671 620 968 909 551 159 249 351 488 580 436 373 649 732 587 556 379 311 785 839 1188 1450 1523 1295 1072 781 1614 1870 1806 1709 2089 2934 3115
229 390 197 106 79 21 10 60 319 511 409 617 537 980 1045 734 320 197 271 397 516 416 361 664 792 881 776 957 907 850 898 1385 1527 1561 1510 1408 822 790 1140 2041 1983 2009 2068 2203
394 0 270 171 150 53 9 46 214 486 511 429 650 824 1113 880 610 252 230 333 428 504 316 495 714 819 930 1037 1251 1380 1634 1643 1853 2040 1596 1888 1617 1267 1215 1378 1498 2360 2355 2243
327 411 305 171 101 0 1 24 66 530 501 605 125 241 1041 999 935 506 289 323 353 436 545 649 684 647 684 764 981 1317 1639 1959 1964 2183 1951 1908 1881 1259 1080 1333 2550 2115 2305 2227
177 296 179 116 28 0 199 113 154 457 569 236 283 94 995 1065 920 969 561 343 344 478 592 735 504 527 562 812 871 1056 1843 2560 2352 2410 2841 2025 2301 1063 1271 2231 2583 2557 3208 2577
171 178 106 194 20 98 152 334 317 445 525 27 29 387 776 908 912 1001 920 699 466 405 349 412 390 495 571 606 818 903 2019 2652 2631 2610 2708 3064 2165 2093 1277 1849 2913 2281 2991 2597
122 153 118 166 140 317 377 332 274 125 337 121 0 408 462 304 416 681 968 921 852 558 447 396 386 480 539 489 578 718 1391 2411 2888 2804 2679 2806 2529 2385 1854 1981 1930 2252 2775 1559
272 312 155 194 170 296 307 110 44 161 38 320 173 44 560 224 344 559 730 753 768 806 449 490 508 493 476 455 648 644 1163 2241 2773 2828 2935 3650 3761 2468 2121 1888 1466 1876 2449 2545
238 212 226 174 114 26 134 106 102 56 187 103 180 734 442 382 336 380 485 898 653 801 714 707 730 786 756 694 691 727 972 1991 2367 2397 2876 3677 3564 3455 2538 2489 2111 1508 1878 1978
112 23 9 145 0 0 8 3 95 82 220 228 96 659 856 852 926 743 431 613 717 872 939 905 876 786 949 722 622 675 1030 1464 2152 2051 2591 2785 2967 3237 2937 2232 2444 1956 1719 2330
174 108 40 0 0 11 0 0 3 27 176 218 388 117 1033 1255 1338 1144 956 888 944 1109 1161 1066 1076 994 911 736 672 706 917 1294 1765 2167 2951 3228 3105 2905 2982 2379 2477 2647 2191 2611
97 90 106 3 3 1 7 17 32 65 135 182 265 973 1060 1209 1214 1325 1441 1436 1414 1109 1004 869 901 959 1061 1166 1030 974 920 1304 1721 2380 3621 3217 2779 2945 2594 2661 2238 3155 3095 2971
28 55 174 175 10 0 0 4 0 1 71 340 521 488 767 1408 1707 1611 1977 2483 2745 2579 2637 2282 1872 1943 1955 1911 1558 1522 1587 1520 1742 2752 2397 2438 2639 2552 2408 2279 2371 2616 3636 3947
12 92 155 276 263 184 47 0 12 10 130 210 417 20 777 1507 1975 1969 1441 1247 1473 1937 2841 2807 2455 2525 2597 2527 2510 2480 2011 2128 2115 1945 2125 2266 2237 2390 2224 2458 3084 2356 3721 3945
111 90 127 0 166 55 38 59 14 138 114 28 0 812 1303 1083 1415 953 1177 1185 1038 1110 1397 2068 2452 2603 2631 2602 2762 2591 2201 2173 2169 2431 2322 2366 2489 2767 3122 3898 3882 3158 3519 3869
96 35 158 248 14 0 18 41 52 54 40 72 292 49 990 1161 914 1109 1061 738 737 848 1001 1408 1876 2230 2507 2599 2673 2656 2792 2726 2758 2517 2603 2797 2985 3024 2933 3147 3223 3374 3713 3954
124 104 205 92 247 148 113 117 197 234 198 131 439 395 1570 1168 908 1129 1047 864 897 1008 1136 1197 1349 1380 1195 1413 1739 2131 2447 2902 3229 3307 3284 3302 3382 3470 3472 3549 3657 3316 3499 2233
335 256 203 178 217 296 453 639 407 213 252 261 322 41 1138 858 694 832 952 1166 1293 1225 939 489 386 570 693 940 1106 1165 1614 2484 2820 2950 2762 2916 2823 2726 2607 2355 1764 1779 1088 1484
219 266 330 254 255 183 301 483 475 265 556 631 799 1274 1223 833 829 947 1082 1285 1261 1115 813 513 548 669 870 818 1014 1210 863 940 1819 2254 2384 2363 2249 2605 2385 1931 1972 1658 1873 1831
215 203 272 431 213 247 596 709 745 588 829 810 889 1349 1084 1031 1042 1085 1313 1335 1166 920 685 494 540 538 416 612 698 779 810 821 1247 1730 1712 1796 1891 1931 1922 2039 2012 1825 1873 1848
237 211 222 251 216 98 273 233 544 433 1080 766 1294 1583 1306 1103 1773 1400 1456 1308 1109 855 639 555 554 569 597 438 740 1069 735 1029 1280 1315 1588 1851 1863 1793 1762 1780 1820 1801 1678 1672
169 234 190 181 322 215 249 7 38 1114 970 1312 1484 1814 1443 1729 1714 1623 1511 1209 971 750 499 418 646 757 792 687 945 1351 1293 1502 1699 1952 2097 2022 1913 1444 1479 1803 1843 1802 1918 2032
312 42 322 134 610 666 278 543 774 1035 1300 1353 1582 1615 1652 1618 1894 1853 1457 1112 904 801 625 515 569 512 661 1085 1183 1584 1748 1542 1843 1926 1842 1718 1703 1396 1326 1660 1675 1768 2258 1662
432 749 546 450 487 342 298 370 548 964 1259 1336 1440 1523 1526 1762 1978 1727 1269 1078 895 693 676 525 532 730 1127 1377 1496 1678 2037 1898 1874 1844 1684 1480 1159 1172 1429 702 481 516 569 688
789 729 246 407 699 561 247 475 539 428 489 847 1321 1581 1595 1428 1463 1293 929 553 388 1069 833 893 1192 1319 1574 1776 1824 1830 2194 2176 1919 1692 1312 1242 859 1136 1075 1520 634 713 659 231
350 378 508 323 549 370 453 303 417 299 124 125 185 311 488 509 523 379 219 261 291 982 985 1365 1413 1493 1457 1258 1475 1959 2414 2430 1971 1520 1138 812 464 558 488 577 1234 0 0 0
CIN
-82 -6 -4 -5 -10 -47 -15 0 -1 -2 -17 -1 -1 0 0 -2 -34 -5 -10 -2 0 -2 -14 0 -2 -4 -3 -10 -59 -30 -29 -20 0 0 0 -1 0 -20 -5 -19 0 0 -1 -2
-7 -4 -3 -38 -46 -16 0 -6 0 -7 -15 0 -5 0 0 -7 -21 -31 -16 -2 -2 -10 -20 -1 -1 0 0 0 0 -8 -7 0 0 0 0 -1 0 0 -2 -7 0 0 0 0
0 -60 -9 -23 0 -6 -3 -2 -4 -2 -23 -7 -2 0 0 -5 -12 -32 -29 -6 0 -2 -26 -8 0 0 0 0 0 -1 -3 0 -5 -3 0 -1 -2 -4 0 0 -1 0 0 0
0 -11 -1 -24 -2 0 -28 -44 -14 -20 -10 -9 -73 -53 0 -12 -10 -24 -31 -18 -2 -2 -3 0 0 0 0 0 0 0 -1 -9 -4 -9 0 -2 -1 0 0 0 -5 0 -2 0
-4 0 -1 -4 -54 0 -7 -29 -27 -31 -17 0 -5 -63 0 -1 -9 -4 -16 -12 -3 0 0 -1 -14 -3 -2 -1 0 -1 -5 -7 -17 0 -7 0 -2 0 -1 -16 -7 -3 -1 0
-9 -6 -30 -5 -81 -42 -45 -20 -42 -15 -8 -130 -5 -62 -20 0 0 0 0 -1 -1 0 0 -2 -1 -1 -1 -2 -1 -2 -4 -13 -17 -17 -20 -5 -1 -1 -1 0 -22 -45 -2 -2
-11 -20 -20 -28 -22 -17 -21 0 -21 -54 -9 -10 0 -1 -7 -18 -13 -4 -1 0 -1 -1 0 -2 -2 0 -2 -1 0 0 -2 -12 -30 -29 -22 -23 -12 -1 -3 -2 0 -37 -18 0
0 0 0 -17 -11 -2 -2 -21 -51 0 0 -1 0 -9 -6 -31 -21 -19 -3 -1 -9 0 -3 -2 0 -3 -1 0 -1 0 -1 -10 -19 -34 -31 -8 -3 -4 -3 0 -1 -7 -39 -19
0 -2 -1 0 -5 -24 -6 -2 -2 -2 -6 -41 -22 -27 -36 -37 -35 -30 -1 -2 -2 0 0 -1 0 0 -1 0 -2 -2 0 -6 -17 -18 -31 -12 -16 -9 0 0 -3 -1 -5 -10
-1 -356 -303 -3 -25 0 -27 -50 -2 -6 -100 0 -3 -2 0 -24 -35 -45 -7 -16 -10 -3 -1 -1 0 0 -1 0 0 -2 -1 -1 -16 -17 -33 -34 -31 -21 -14 -11 -6 -1 0 -3
0 -2 -2 0 0 -14 -3 0 -57 -47 -5 -3 -5 -116 -5 -34 -43 -27 -18 -21 -20 -26 -16 -2 -1 -1 0 -1 -1 -1 -1 -1 -8 -19 -16 -24 -29 -32 -30 -26 -22 -17 -14 0
-17 -5 -3 -15 0 -1 -1 0 -4 -1 -7 0 0 0 -14 -29 -58 -31 -19 -22 -40 -48 -38 -19 -9 0 -4 -3 -1 0 -2 -1 -17 -23 -18 -30 -30 -26 -24 -27 -29 -12 -16 -5
-11 -12 -3 0 -13 0 0 -7 0 0 -2 -3 -5 -37 -76 -12 -36 -36 -22 -4 -12 -8 -20 -16 0 0 0 -5 -13 -6 -30 -22 -15 -15 -42 -38 -42 -31 -33 -18 -27 -25 -12 -6
-127 -1 -3 -19 -15 -29 -15 -15 -32 -40 -124 -74 -48 -203 -127 -1 -9 -15 -38 -43 -38 -38 -22 -29 -45 -44 -42 -58 -53 -52 -48 -61 -58 -50 -33 -34 -41 -31 -35 -15 0 -9 0 -2
-19 -7 -84 -16 -4 -10 -39 -19 -46 -3 -75 -97 0 -7 -4 -21 -19 -54 -50 -46 -53 -41 -43 -25 -21 -31 -36 -40 -31 -40 -47 -62 -45 -68 -50 -48 -50 -19 -15 -1 0 -11 0 0
-2 -2 -2 -1 -3 -1 -32 -16 -19 -12 -31 -26 -278 -331 0 -5 -57 -49 -58 -68 -69 -65 -46 -29 -18 -15 -12 -11 -10 -16 -13 -24 -15 -21 -14 -16 -28 -25 -25 -12 0 0 0 0
-1 -3 -2 -1 -1 -1 0 0 0 0 -3 0 -49 -33 0 -30 -40 -54 -55 -66 -67 -55 -51 -49 -46 -36 -52 -53 -48 -19 -8 -1 0 0 0 0 0 0 0 0 -1 -20 -4 -69
0 0 0 0 -1 -1 -1 -2 -7 -5 -8 -3 -233 -422 -29 -23 -38 -45 -54 -52 -57 -76 -83 -101 -112 -99 -78 -48 -38 -51 -30 0 0 0 -1 0 -1 -2 -3 -7 -41 -33 -145 -72
0 0 0 0 0 0 0 -5 -1 -3 0 -1 -1 -4 -3 -31 -46 -59 -62 -53 -61 -85 -87 -102 -105 -77 -41 -34 -23 -20 -44 -62 -6 0 0 0 0 -2 -3 -7 -3 -14 -5 -2
0 0 0 0 0 0 0 -10 -8 -5 0 -2 -2 0 -21 -34 -8 -21 -58 -65 -76 -76 -82 -76 -64 -33 -57 -23 -12 -3 -20 -35 -31 -9 -10 -10 -9 -5 -1 0 0 0 0 0
-4 -9 0 0 0 0 -5 -13 -9 -1 -1 -11 0 -1 -14 -12 -11 -50 -60 -57 -51 -55 -62 -66 -36 -15 -9 -24 -9 -19 -29 -32 -26 -20 -10 -6 -9 -11 -11 -6 -1 0 0 0
-26 -2 0 0 0 0 -23 -21 -16 -11 -45 -15 -1 0 -18 -4 -32 -36 -54 -68 -63 -71 -108 -79 -18 -1 0 -6 -7 -10 -30 -29 -15 -3 0 0 -1 -3 -1 0 0 0 0 -2
-4 -4 -1 0 -3 -20 -32 -13 -14 -17 -8 -15 -1 0 -1 -10 -17 -25 -41 -58 -54 -37 -55 -35 -10 -22 -7 -7 -9 -3 -31 -35 -20 -9 -13 -14 -6 -19 -23 -3 0 0 -1 0
-16 -14 -2 -5 -1 -8 -11 -18 -10 0 0 0 0 0 0 0 0 0 -1 -3 0 -16 -31 -33 -2 -1 -7 -12 -11 -11 -20 -27 -14 -14 -20 -21 -30 -30 -14 -11 -17 -17 -8 -1
-3 -11 -3 0 -1 -11 -11 0 0 -17 -20 -7 -2 -1 -1 0 -1 0 -1 -2 -2 0 0 -1 0 0 0 -1 -2 -1 -2 -10 -5 -9 -10 -9 -2 -17 -14 -19 -48 -32 -102 -40
-4 -2 0 0 -3 -9 -3 -15 -4 -42 -82 -86 -78 -56 -35 -27 -8 -29 -36 -51 -35 0 0 -1 -3 0 0 -1 0 0 0 -2 -3 -2 -2 -3 0 0 -4 -3 -30 0 0 0
Wind_Speed
16 14 22 19 10 5 2 3 3 9 9 8 6 13 13 13 13 16 15 16 16 15 14 13 11 12 10 12 11 14 12 12 8 7 7 7 5 3 2 3 4 1 4 4
13 17 12 6 3 6 4 2 7 9 10 8 7 12 15 14 13 14 15 14 15 16 15 14 15 13 14 14 12 11 11 11 9 8 6 5 2 4 3 3 4 2 2 3
18 20 1 4 8 10 11 10 7 4 12 6 9 8 14 17 13 13 15 14 15 16 17 17 15 13 12 14 13 12 12 10 10 11 5 4 4 4 4 6 8 8 4 4
12 11 5 5 9 11 7 4 3 10 14 9 27 12 18 19 17 15 16 14 16 15 15 16 18 16 16 13 12 13 12 12 10 10 7 5 6 6 6 6 7 6 5 4
14 9 4 8 11 10 9 1 9 15 16 6 15 11 18 17 17 16 16 18 16 12 14 16 16 16 15 16 15 15 14 12 11 11 11 8 9 6 4 1 3 3 7 4
19 7 4 11 5 3 5 11 11 12 5 15 7 22 15 11 13 19 17 16 17 17 16 14 13 11 10 12 13 13 14 11 11 11 11 11 7 7 4 4 2 4 4 9
14 18 13 8 12 5 13 15 8 4 9 5 5 6 14 7 5 4 21 20 18 17 15 15 13 13 11 8 8 8 12 11 12 13 13 13 10 8 7 6 7 5 3 6
14 15 13 11 13 13 14 6 5 6 2 10 3 10 11 8 5 1 5 19 18 15 15 15 15 12 9 10 10 10 13 12 13 13 12 10 10 8 8 8 8 5 3 6
17 17 15 7 6 9 13 8 8 7 13 15 10 14 13 9 6 0 2 6 11 13 12 13 14 14 11 10 11 11 11 12 11 14 11 11 10 11 8 7 8 7 5 4
16 10 20 9 9 11 16 15 10 6 6 3 3 13 12 10 9 7 5 8 8 9 9 11 12 12 11 12 13 13 14 13 12 11 12 11 12 11 11 8 8 7 6 6
15 10 14 8 11 16 9 13 13 2 14 10 7 3 9 9 12 10 9 8 5 6 9 10 8 10 13 13 12 14 13 12 13 12 11 11 12 12 12 11 11 10 9 7
17 10 9 17 7 6 11 13 14 8 3 14 4 14 12 9 11 11 10 9 6 4 2 2 4 6 4 8 12 11 9 13 11 11 10 12 12 12 13 13 13 11 10 10
12 11 10 14 12 8 11 10 12 16 6 19 5 5 5 9 11 10 11 9 7 4 2 4 4 4 4 7 8 8 7 8 8 11 12 13 14 14 14 14 13 13 12 11
6 18 13 7 10 11 7 7 5 17 11 11 9 12 12 14 13 15 12 10 9 9 8 7 6 5 5 3 3 4 5 7 7 9 11 11 12 13 13 12 11 13 12 11
11 11 25 18 14 12 3 7 4 11 12 7 22 14 17 17 16 16 14 12 11 11 11 9 8 7 6 5 4 1 4 5 6 7 6 6 7 8 8 7 7 9 9 9
14 8 5 6 1 4 8 7 7 8 6 9 35 14 21 18 17 15 14 12 12 11 11 10 9 9 8 7 6 5 4 2 1 4 6 6 5 5 6 6 8 7 7 8
13 7 1 7 6 7 11 12 7 6 2 13 8 14 22 18 16 15 15 13 12 11 10 9 9 9 8 9 7 6 5 4 5 4 3 1 1 2 1 2 1 6 4 4
8 8 3 11 6 9 12 8 4 7 6 0 20 20 20 15 14 14 13 13 11 10 8 7 9 8 8 8 8 7 7 6 5 5 5 5 4 5 3 3 0 4 2 4
10 9 5 4 7 11 11 8 3 7 7 5 21 21 18 15 15 12 12 11 10 9 8 8 8 9 6 7 5 5 6 6 5 5 4 3 3 4 4 3 3 4 4 6
13 9 9 7 8 8 12 9 4 10 8 12 16 18 17 17 12 12 12 12 11 9 8 8 7 8 10 4 6 5 7 7 7 6 6 5 4 3 2 2 1 2 4 6
12 9 11 10 7 7 11 4 4 12 7 2 9 13 12 9 11 18 14 12 9 9 8 7 4 6 6 4 8 6 7 8 6 5 4 4 3 3 3 2 2 3 4 5
9 10 11 10 8 6 5 1 7 7 2 3 6 11 9 11 14 14 13 11 9 8 8 4 4 6 7 5 4 6 6 5 4 3 4 4 3 3 3 2 3 4 4 6
7 6 6 2 6 8 4 3 3 5 6 2 6 10 10 11 11 12 10 9 9 8 5 2 4 7 5 4 4 5 4 3 3 3 3 3 2 3 2 2 2 6 6 5
3 5 5 2 9 4 5 3 3 4 5 4 6 10 9 10 12 10 11 10 10 9 7 4 4 6 5 4 4 4 4 4 3 3 2 1 2 1 2 4 3 4 4 3
5 5 7 5 7 4 4 5 6 6 5 7 4 4 5 6 9 10 7 4 6 9 6 5 4 3 4 2 1 1 4 4 3 3 3 4 5 1 1 2 4 4 5 4
7 6 7 0 7 7 7 6 4 7 4 5 4 2 3 2 1 3 1 5 2 8 6 4 3 3 2 2 3 3 2 3 4 5 7 2 3 4 1 3 6 4 5 6
Wind_Direction
218 260 149 231 43 36 13 344 154 125 178 207 171 140 164 174 190 182 186 189 185 206 192 193 201 170 182 167 182 186 192 202 206 207 207 210 224 195 233 252 122 185 179 113
241 251 69 26 334 293 195 199 133 124 172 238 181 162 167 181 186 181 195 193 188 190 188 206 188 196 187 176 186 192 212 205 204 216 221 296 255 243 224 259 98 190 291 130
253 358 3 322 298 291 97 121 173 189 185 199 166 190 176 181 182 180 193 192 198 184 182 187 197 204 200 182 192 194 202 213 209 248 202 194 269 262 246 221 210 179 182 199
268 220 328 290 274 325 60 68 162 179 201 198 129 230 192 177 183 189 196 201 195 189 191 183 186 199 199 197 198 197 198 205 214 224 250 237 276 247 204 236 81 132 171 210
242 215 246 262 32 317 60 359 188 189 227 97 192 8 151 173 181 189 200 195 207 212 201 184 206 195 206 185 192 193 190 206 224 196 240 201 231 223 245 26 100 253 142 213
269 311 234 302 301 299 294 232 207 196 115 322 29 99 275 161 190 186 198 204 203 199 212 210 208 220 206 197 193 188 170 188 207 221 207 239 244 263 257 217 79 278 165 167
234 247 243 224 262 203 237 245 329 83 255 150 83 125 68 78 112 261 189 198 201 194 201 196 210 209 209 215 199 190 166 185 199 206 211 212 219 209 240 250 233 118 246 260
227 203 208 209 239 283 269 301 229 314 7 113 360 69 75 84 83 45 296 185 193 202 196 202 190 203 202 206 201 195 172 190 194 203 208 204 206 212 219 206 256 257 116 261
184 231 199 205 234 255 287 255 314 295 342 84 251 98 99 91 81 152 145 84 189 197 223 195 199 197 192 198 212 197 189 183 200 196 201 201 203 226 218 235 198 240 266 249
289 50 293 199 234 248 277 324 284 245 210 331 15 39 98 109 99 92 133 161 180 202 217 233 204 212 183 205 199 203 191 197 195 210 191 203 207 213 227 212 225 245 252 220
274 180 177 181 212 214 191 246 247 74 272 265 93 134 99 117 114 112 132 136 143 152 199 214 213 220 216 201 213 199 201 211 195 198 194 199 202 207 211 214 211 217 223 219
247 304 198 205 120 311 308 294 286 227 294 308 73 104 100 117 120 114 105 113 109 115 323 271 209 194 252 280 207 219 238 195 206 202 196 194 205 210 208 215 210 210 216 219
216 251 175 193 170 190 238 220 264 291 269 228 96 163 335 120 124 113 117 112 108 89 121 250 235 259 205 218 249 205 222 256 210 199 208 211 199 209 219 208 215 205 211 217
303 252 85 15 304 317 167 201 245 271 52 356 3 161 192 158 136 120 115 108 113 112 104 92 95 65 50 353 301 288 236 207 224 230 207 226 218 218 219 219 217 216 204 216
248 289 126 213 228 210 21 308 233 280 103 122 216 143 161 153 143 125 120 114 111 99 92 95 100 107 110 109 87 87 200 222 209 203 246 236 229 247 222 257 230 222 238 217
244 212 226 289 139 274 266 202 276 290 328 296 129 208 149 134 124 131 125 123 110 102 94 98 102 106 93 87 95 93 88 73 296 198 211 193 215 242 247 235 242 234 240 253
272 294 219 270 113 309 234 257 208 310 291 304 31 39 125 141 140 137 139 131 120 111 110 101 91 79 73 83 72 70 69 78 101 112 100 179 136 179 141 69 352 36 65 351
265 282 302 284 43 250 69 38 360 308 339 104 129 141 234 140 137 135 127 125 123 115 112 95 106 110 101 74 69 74 81 83 93 95 76 75 90 96 76 79 160 308 5 297
257 295 295 277 249 253 150 170 280 250 181 144 124 156 127 138 126 135 133 126 122 121 119 108 103 94 74 85 89 82 67 73 68 75 83 100 100 149 171 201 233 234 229 262
261 235 277 257 277 293 65 62 11 308 256 150 142 127 146 152 179 146 146 137 140 136 123 116 122 137 91 87 105 70 75 62 77 77 74 68 55 56 18 358 326 291 284 276
237 245 240 230 249 251 79 54 355 254 56 56 125 129 155 178 62 132 144 146 149 117 127 116 108 87 100 69 69 65 63 81 78 75 75 71 65 61 37 17 316 319 297 314
222 214 239 242 268 228 34 253 258 57 28 57 116 131 167 100 125 136 143 149 139 133 129 163 127 95 95 87 108 92 82 103 83 70 64 70 64 337 69 333 308 297 286 255
252 206 259 244 59 92 79 46 55 8 103 132 137 145 133 142 143 143 147 154 148 152 153 80 70 90 76 99 49 100 108 112 88 81 78 73 56 26 4 300 311 266 210 272
200 319 286 97 132 132 92 118 137 117 140 162 162 142 167 151 151 155 161 169 171 161 159 120 45 88 116 118 131 110 138 138 163 109 111 134 132 304 2 313 6 334 1 355
45 159 243 196 130 124 169 176 136 116 92 66 90 128 140 147 164 176 181 195 164 122 114 131 145 159 140 112 149 116 149 174 193 183 202 230 156 153 193 71 17 3 62 9
177 198 214 149 143 204 152 180 156 155 157 130 120 108 74 1 154 156 251 150 151 122 118 153 167 155 310 275 254 228 173 197 233 224 207 106 284 200 344 291 163 63 88 149